Leeds And Bradford, United Kingdom

4:19 PM GMT on February 09, 2016 (GMT +0000)
Leeds Bradford

Weather History for EGNM - March, 2013

Change the Weather History Date:

Tuesday, March 12, 2013

  Actual Average Record
Temperature  
Mean Temperature 30 °F -  
Max Temperature 37 °F 47 °F - ()
Min Temperature 23 °F 36 °F - ()
Degree Days  
Heating Degree Days 35    
Moisture  
Dew Point 26 °F    
Average Humidity 79    
Maximum Humidity 100    
Minimum Humidity 60    
Precipitation  
Precipitation 0.00 in - - ()
Sea Level Pressure  
Sea Level Pressure 29.90 in    
Wind  
Wind Speed 9 mph ()    
Max Wind Speed 17 mph    
Max Gust Speed -    
Visibility 6.2 miles    
Events Snow    
T = Trace of Precipitation, MM = Missing Value Source: Averaged Metar Reports

Daily Weather History Graph

Daily Weather History Graph

Search for Another Location

Airport or City:

Trip Planner

Search our weather history database for the weather conditions in past years. The results will help you decide how hot, cold, wet, or windy it might be!

Date:

Astronomy

Mar. 12, 2013 Rise Set
Actual Time 6:28 AM GMT 6:05 PM GMT
Civil Twilight 5:53 AM GMT 6:40 PM GMT
Nautical Twilight 5:12 AM GMT 7:21 PM GMT
Astronomical Twilight 4:30 AM GMT 8:03 PM GMT
Moon 6:16 AM GMT (3/12) 7:21 PM GMT (3/12)
Length of Visible Light 12h 46m
Length of Day
11h 36m
New Moon, 1% of the Moon is Illuminated
Mar 12
New Moon
Mar 19
First Quarter
Mar 27
Full
Apr 3
Last Quarter
Apr 10
New

Hourly Weather History & Observations

Time (GMT) Temp. Windchill Dew Point Humidity Pressure Visibility Wind Dir Wind Speed Gust Speed Precip Events Conditions
12:20 AM 24.8 °F 16.9 °F 23.0 °F 93% 29.98 in 6.2 mi NNE 6.9 mph - N/A Snow Light Snow Showers
12:50 AM 23.0 °F 13.9 °F 23.0 °F 100% 29.98 in 6.2 mi NE 8.1 mph - N/A Snow Light Snow Showers
1:20 AM 24.8 °F 15.3 °F 23.0 °F 93% 29.95 in 6.2 mi NE 9.2 mph - N/A Snow Light Snow Showers
2:20 AM 24.8 °F 15.3 °F 23.0 °F 93% 29.95 in 6.2 mi NNE 9.2 mph - N/A Snow Light Snow Showers
2:50 AM 25 °F - 18 °F 65%  in - NNE 15.0 mph - -  
2:50 AM 24.8 °F 16.1 °F 23.0 °F 93% 29.95 in - NNE 8.1 mph - N/A   Clear
3:20 AM - - - N/A% 29.95 in - NNE 8.1 mph - N/A   Clear
3:50 AM 24.8 °F 16.1 °F 24.8 °F 100% 29.95 in 6.2 mi NNE 8.1 mph - N/A   Scattered Clouds
4:20 AM 26.6 °F 18.2 °F 24.8 °F 93% 29.95 in 6.2 mi North 8.1 mph - N/A   Scattered Clouds
4:50 AM 24.8 °F 17.9 °F 24.8 °F 100% 29.95 in 6.2 mi North 5.8 mph - N/A   Scattered Clouds
5:20 AM 26.6 °F 19.1 °F 24.8 °F 93% 29.95 in 6.2 mi North 6.9 mph - N/A   Scattered Clouds
5:50 AM 25 °F - 22 °F 81%  in - NNE 9.2 mph - -  
5:50 AM 26.6 °F 19.1 °F 26.6 °F 100% 29.92 in 6.2 mi North 6.9 mph - N/A   Scattered Clouds
6:20 AM 26.6 °F 18.2 °F 26.6 °F 100% 29.92 in 6.2 mi North 8.1 mph - N/A   Scattered Clouds
6:50 AM 26.6 °F 18.2 °F 26.6 °F 100% 29.92 in 6.2 mi North 8.1 mph - N/A   Scattered Clouds
7:20 AM 28.4 °F 19.7 °F 26.6 °F 93% 29.92 in 6.2 mi North 9.2 mph - N/A   Scattered Clouds
7:50 AM 28.4 °F 19.1 °F 28.4 °F 100% 29.95 in 6.2 mi North 10.4 mph - N/A   Scattered Clouds
8:20 AM 28.4 °F 19.1 °F 28.4 °F 100% 29.95 in 6.2 mi North 10.4 mph - N/A   Scattered Clouds
8:50 AM 29 °F - 24 °F 76%  in - North 13.8 mph - -  
8:50 AM 30.2 °F 20.8 °F 30.2 °F 100% 29.95 in 6.2 mi North 11.5 mph - N/A Snow Light Snow Showers
9:20 AM 32.0 °F 23.0 °F 30.2 °F 93% 29.95 in 6.2 mi North 11.5 mph - N/A   Scattered Clouds
9:50 AM 32.0 °F 24.2 °F 32.0 °F 100% 29.92 in 6.2 mi North 9.2 mph - N/A   Scattered Clouds
10:20 AM 33.8 °F 25.3 °F 30.2 °F 87% 29.92 in 6.2 mi North 11.5 mph - N/A   Scattered Clouds
10:50 AM 35.6 °F 27.1 °F 30.2 °F 81% 29.92 in 6.2 mi North 12.7 mph - N/A   Partly Cloudy
11:20 AM 37.4 °F 29.3 °F 30.2 °F 75% 29.92 in 6.2 mi North 12.7 mph - N/A   Partly Cloudy
11:50 AM 34 °F - 26 °F 62%  in - North 15.0 mph - -  
11:50 AM 37.4 °F 28.9 °F 30.2 °F 75% 29.92 in 6.2 mi North 13.8 mph - N/A   Partly Cloudy
12:20 PM 37.4 °F 27.8 °F 26.6 °F 65% 29.89 in 6.2 mi North 17.3 mph - N/A   Partly Cloudy
12:50 PM 37.4 °F 28.5 °F 24.8 °F 60% 29.89 in 6.2 mi North 15.0 mph - N/A   Partly Cloudy
1:20 PM 37.4 °F 28.5 °F 24.8 °F 60% 29.89 in 6.2 mi North 15.0 mph - N/A   Partly Cloudy
1:50 PM 37.4 °F 28.9 °F 26.6 °F 65% 29.89 in 6.2 mi North 13.8 mph - N/A   Partly Cloudy
2:20 PM 39.2 °F 32.0 °F 26.6 °F 61% 29.86 in 6.2 mi North 11.5 mph - N/A   Partly Cloudy
2:50 PM 36 °F - 27 °F 61%  in - NNW 12.7 mph - -  
2:50 PM 37.4 °F 29.3 °F 26.6 °F 65% 29.86 in 6.2 mi North 12.7 mph - N/A   Partly Cloudy
3:20 PM 37.4 °F 29.8 °F 26.6 °F 65% 29.86 in 6.2 mi North 11.5 mph - N/A   Partly Cloudy
3:50 PM 39.2 °F 31.2 °F 26.6 °F 61% 29.86 in 6.2 mi North 13.8 mph - N/A   Partly Cloudy
4:20 PM 37.4 °F 29.8 °F 24.8 °F 60% 29.86 in 6.2 mi NNW 11.5 mph - N/A   Partly Cloudy
4:50 PM 37.4 °F 30.3 °F 24.8 °F 60% 29.83 in 6.2 mi NNW 10.4 mph - N/A   Partly Cloudy
5:20 PM 37.4 °F 29.8 °F 24.8 °F 60% 29.83 in 6.2 mi North 11.5 mph - N/A   Partly Cloudy
5:50 PM 35 °F - 26 °F 60%  in - NNW 11.5 mph - -  
5:50 PM 35.6 °F 27.5 °F 24.8 °F 65% 29.83 in 6.2 mi NNW 11.5 mph - N/A   Mostly Cloudy
6:20 PM 35.6 °F 27.5 °F 26.6 °F 70% 29.83 in 6.2 mi NNW 11.5 mph - N/A   Mostly Cloudy
6:50 PM 35.6 °F 27.5 °F 26.6 °F 70% 29.83 in 6.2 mi NW 11.5 mph - N/A   Mostly Cloudy
7:20 PM 35.6 °F 27.5 °F 26.6 °F 70% 29.83 in 6.2 mi NW 11.5 mph - N/A   Mostly Cloudy
7:50 PM 35.6 °F 27.5 °F 26.6 °F 70% 29.86 in - NW 11.5 mph - N/A   Clear
8:20 PM 35.6 °F 28.6 °F 26.6 °F 70% 29.86 in 6.2 mi NW 9.2 mph - N/A   Partly Cloudy
8:50 PM 34 °F - 27 °F 68%  in - NW 11.5 mph - -  
8:50 PM 35.6 °F 27.5 °F 26.6 °F 70% 29.86 in 6.2 mi NW 11.5 mph - N/A   Partly Cloudy
9:20 PM 35.6 °F 28.0 °F 28.4 °F 75% 29.86 in 6.2 mi NNW 10.4 mph - N/A   Scattered Clouds
9:50 PM 35.6 °F 26.6 °F 28.4 °F 75% 29.86 in 6.2 mi North 13.8 mph - N/A   Scattered Clouds
10:20 PM 33.8 °F 25.3 °F 28.4 °F 81% 29.83 in 6.2 mi NNW 11.5 mph - N/A   Mostly Cloudy
10:50 PM 33.8 °F 25.3 °F 28.4 °F 81% 29.83 in 6.2 mi NNW 11.5 mph - N/A   Mostly Cloudy
11:20 PM 33.8 °F 25.3 °F 28.4 °F 81% 29.83 in 6.2 mi NW 11.5 mph - N/A   Mostly Cloudy
11:50 PM 33 °F - 28 °F 77%  in - NW 10.4 mph - -  
11:50 PM 33.8 °F 25.3 °F 28.4 °F 81% 29.83 in - NNW 11.5 mph - N/A   Clear